Port-Au-Prince, Haiti

2:57 PM EDT on September 18, 2019 (GMT -0400)
Port-Au-Prince International

Weather History for MTPP - August, 2019

Change the Weather History Date:

Friday, August 23, 2019

  Actual Average Record
Temperature  
Mean Temperature 84 °F -  
Max Temperature 91 °F 91 °F 98 °F (2006)
Min Temperature 77 °F 81 °F 75 °F (2005)
Cooling Degree Days 19    
Growing Degree Days 34 (Base 50)    
Moisture  
Dew Point 73 °F    
Average Humidity 69    
Maximum Humidity 94    
Minimum Humidity 52    
Precipitation  
Precipitation 0.00 in - - ()
Sea Level Pressure  
Sea Level Pressure 29.95 in    
Wind  
Wind Speed 8 mph ()    
Max Wind Speed 21 mph    
Max Gust Speed -    
Visibility 5.9 miles    
Events      
Averages and records for this station are not official NWS values.
T = Trace of Precipitation, MM = Missing Value Source: Averaged Metar Reports

Daily Weather History Graph

Daily Weather History Graph

Search for Another Location

Airport or City:

Astronomy

Aug. 23, 2019 Rise Set
Actual Time 6:32 AM EDT 7:10 PM EDT
Civil Twilight 6:10 AM EDT 7:33 PM EDT
Nautical Twilight 5:44 AM EDT 7:59 PM EDT
Astronomical Twilight 5:17 AM EDT 8:25 PM EDT
Moon No Moon Rise 1:05 PM EDT (8/23)
Length of Visible Light 13h 22m
Length of Day
12h 38m
Waning Gibbous, 50% of the Moon is Illuminated
Aug 23
Waning Gibbous
Aug 30
New
Sep 5
First Quarter
Sep 14
Full
Sep 21
Last Quarter

Hourly Weather History & Observations

Time (EDT) Temp. Heat Index Dew Point Humidity Pressure Visibility Wind Dir Wind Speed Gust Speed Precip Events Conditions
12:59 AM 78.8 °F - 75.2 °F 89% 29.98 in - East 5.8 mph - N/A   Unknown
1:59 AM 77.0 °F - 75.2 °F 94% 29.95 in - ESE 4.6 mph - N/A   Unknown
2:59 AM 78.8 °F - 73.4 °F 83% 29.95 in - ESE 5.8 mph - N/A   Unknown
3:59 AM 78.8 °F - 73.4 °F 83% 29.95 in - SE 9.2 mph - N/A   Unknown
4:59 AM 78.8 °F - 73.4 °F 83% 29.95 in - ESE 9.2 mph - N/A   Unknown
5:52 AM 77.0 °F - 71.6 °F 83% 29.95 in 5.0 mi SE 5.8 mph - N/A   Partly Cloudy
6:52 AM 78.8 °F - 73.4 °F 83% 29.98 in 5.0 mi ESE 4.6 mph - N/A   Partly Cloudy
7:52 AM - - - N/A% 29.98 in 5.6 mi ESE 8.1 mph - N/A   Partly Cloudy
8:53 AM 84.2 °F 90.9 °F 73.4 °F 70% 29.98 in - ESE 9.2 mph - N/A   Partly Cloudy
9:56 AM 87.8 °F 95.6 °F 73.4 °F 62% 29.98 in - ESE 18.4 mph - N/A   Partly Cloudy
10:53 AM 89.6 °F 96.2 °F 71.6 °F 55% 29.98 in 6.2 mi ESE 20.7 mph - N/A   Partly Cloudy
11:55 AM 91.4 °F 98.4 °F 71.6 °F 52% 29.95 in 6.2 mi ESE 18.4 mph - N/A   Scattered Clouds
12:53 PM 91.4 °F 98.4 °F 71.6 °F 52% 29.95 in 6.2 mi ESE 13.8 mph - N/A   Scattered Clouds
1:53 PM 89.6 °F 98.2 °F 73.4 °F 59% 29.92 in 6.2 mi West 9.2 mph - N/A   Mostly Cloudy
2:53 PM 91.4 °F 100.1 °F 73.4 °F 55% 29.92 in 6.2 mi WNW 5.8 mph - N/A   Scattered Clouds
3:53 PM 91.4 °F 98.4 °F 71.6 °F 52% 29.89 in - ESE 11.5 mph - N/A   Mostly Cloudy
4:58 PM 89.6 °F 98.2 °F 73.4 °F 59% 29.89 in 6.2 mi Variable 5.8 mph - N/A   Mostly Cloudy
5:54 PM 87.8 °F 97.6 °F 75.2 °F 66% 29.92 in 6.2 mi NNW 3.5 mph - N/A   Scattered Clouds
6:56 PM 87.8 °F 93.8 °F 71.6 °F 58% 29.92 in 6.2 mi NNE 4.6 mph - N/A   Scattered Clouds
7:54 PM 86.0 °F 91.8 °F 71.6 °F 62% 29.92 in 5.6 mi SE 10.4 mph - N/A   Scattered Clouds
9:59 PM 84.2 °F 92.3 °F 75.2 °F 74% 29.98 in - ESE 15.0 mph - N/A   Unknown
10:59 PM 84.2 °F 92.3 °F 75.2 °F 74% 30.01 in - SE 12.7 mph - N/A   Unknown
11:59 PM 82.4 °F 88.2 °F 73.4 °F 74% 29.98 in - ESE 12.7 mph - N/A   Unknown